Regional Weather Roundup
Issued by NWS

Home | Current Version | Previous Version | Graphics & Text | Print | Product List | Glossary On
Versions: 1 2 3 4 5 6 7 8 9 10 11 12 13 14 15 16 17 18 19 20 21 22 23 24 25 26 27 28 29 30 31 32 33 34 35 36 37 38 39 40 41 42 43 44 45 46 47 48 49 50
000
ASUS43 KBIS 192320
RWRND

NORTH DAKOTA REGIONAL WEATHER ROUNDUP
NATIONAL WEATHER SERVICE BISMARCK ND
600 PM CDT TUE AUG 19 2014

NOTE: "FAIR" INDICATES FEW OR NO CLOUDS BELOW 12,000 FEET WITH NO
SIGNIFICANT WEATHER AND/OR OBSTRUCTIONS TO VISIBILITY.


NDZ001>003-009>011-017-200000-
NORTHWEST NORTH DAKOTA

CITY           SKY/WX    TMP DP  RH WIND       PRES   REMARKS
WILLISTON      SUNNY     91  54  28 SE12      29.66F
MINOT          SUNNY     85  55  35 SE5       29.71F
MINOT AFB      SUNNY     85  57  38 SE8       29.71S
$$

NDZ018>021-031>035-040>046-200000-
SOUTHWEST NORTH DAKOTA

CITY           SKY/WX    TMP DP  RH WIND       PRES   REMARKS
BISMARCK       SUNNY     87  61  41 SE8       29.73F
DICKINSON      SUNNY     86  59  39 SE12      29.71F
GARRISON         N/A     83  60  45 E6        29.73F
HETTINGER ARPT PTSUNNY   84  56  38 SE6       29.75S
$$

NDZ004>008-012>016-024-026-027-054-200000-
NORTHEAST NORTH DAKOTA

CITY           SKY/WX    TMP DP  RH WIND       PRES   REMARKS
GRAND FORKS    MOSUNNY   82  64  54 NE6       29.72F
GRND FRKS AFB  SUNNY     80  65  59 E3        29.74S
DEVILS LAKE    SUNNY     82  61  47 SW7       29.73S
$$

NDZ022-023-025-028>030-036>039-047>053-200000-
SOUTHEAST NORTH DAKOTA

CITY           SKY/WX    TMP DP  RH WIND       PRES   REMARKS
FARGO          SUNNY     82  63  52 CALM      29.73F
JAMESTOWN      PTSUNNY   81  62  52 S5        29.75S
$$




USA.gov is the U.S. government's official web portal to all federal, state and local government web resources and services.